Weather History for KDMN - October, 2012

Change the Weather History Date:

Tuesday, October 9, 2012

  Actual Average Record
Temperature  
Mean Temperature 67 °F 64 °F  
Max Temperature 84 °F 80 °F 90 °F (1956)
Min Temperature 49 °F 49 °F 33 °F (1982)
Cooling Degree Days 2    
Growing Degree Days 17 (Base 50)    
Moisture  
Dew Point 30 °F    
Average Humidity 31    
Maximum Humidity 48    
Minimum Humidity 13    
Precipitation  
Precipitation 0.00 in 0.05 in 0.76 in (2006)
Month to date precipitation 0.00 0.35  
Year to date precipitation 3.71 9.24  
Sea Level Pressure  
Sea Level Pressure 29.89 in    
Wind  
Wind Speed 7 mph (West)    
Max Wind Speed 15 mph    
Max Gust Speed 21 mph    
Visibility 10 miles    
Events      
T = Trace of Precipitation, MM = Missing Value Source: NWS Daily Summary

Daily Weather History Graph

Daily Weather History Graph

Search for Another Location

Airport or City:

Trip Planner

Search our weather history database for the weather conditions in past years. The results will help you decide how hot, cold, wet, or windy it might be!

Date:

Astronomy

Oct. 09, 2012 Rise Set
Actual Time 7:10 AM MDT 6:44 PM MDT
Civil Twilight 6:46 AM MDT 7:09 PM MDT
Nautical Twilight 6:17 AM MDT 7:37 PM MDT
Astronomical Twilight 5:49 AM MDT 8:06 PM MDT
Moon 1:10 AM MDT (10/9) 2:55 PM MDT (10/9)
Length of Visible Light 12h 23m
Length of Day
11h 34m
Last Quarter, 36% of the Moon is Illuminated
Oct 9
Last Quarter
Oct 15
New
Oct 21
First Quarter
Oct 29
Full
Nov 6
Last Quarter

Hourly Weather History & Observations

Time (MDT) Temp. Dew Point Humidity Pressure Visibility Wind Dir Wind Speed Gust Speed Precip Events Conditions
12:53 AM 59.0 °F 28.9 °F 32% 29.88 in 10.0 mi WNW 8.1 mph - N/A   Clear
2:53 AM 57.0 °F 30.0 °F 36% 29.88 in 10.0 mi West 8.1 mph - N/A   Clear
3:53 AM 52.0 °F 30.0 °F 43% 29.89 in 10.0 mi WSW 5.8 mph - N/A   Clear
4:53 AM 52.0 °F 30.9 °F 45% 29.89 in 10.0 mi WSW 6.9 mph - N/A   Clear
5:53 AM 52.0 °F 32.0 °F 47% 29.91 in 10.0 mi West 4.6 mph - N/A   Clear
6:53 AM 50.0 °F 30.9 °F 48% 29.94 in 10.0 mi Calm Calm - N/A   Clear
7:53 AM 55.0 °F 32.0 °F 42% 29.94 in 10.0 mi WNW 8.1 mph - N/A   Clear
8:53 AM 63.0 °F 35.1 °F 35% 29.95 in 10.0 mi West 5.8 mph - N/A   Clear
9:53 AM 71.1 °F 34.0 °F 26% 29.95 in 10.0 mi West 8.1 mph - N/A   Clear
10:53 AM 75.9 °F 37.0 °F 24% 29.95 in 10.0 mi SSW 9.2 mph - N/A   Clear
11:53 AM 79.0 °F 36.0 °F 21% 29.92 in 10.0 mi Variable 6.9 mph - N/A   Clear
12:53 PM 82.0 °F 34.0 °F 18% 29.88 in 10.0 mi WSW 8.1 mph - N/A   Clear
1:53 PM 82.9 °F 32.0 °F 16% 29.85 in 10.0 mi WSW 9.2 mph - N/A   Clear
2:53 PM 82.9 °F 32.0 °F 16% 29.83 in 10.0 mi West 11.5 mph 18.4 mph N/A   Clear
3:53 PM 84.0 °F 28.0 °F 13% 29.83 in 10.0 mi SW 10.4 mph 20.7 mph N/A   Clear
4:53 PM 84.0 °F 28.0 °F 13% 29.83 in 10.0 mi SW 9.2 mph 17.3 mph N/A   Clear
5:53 PM 82.0 °F 28.0 °F 14% 29.83 in 10.0 mi West 11.5 mph - N/A   Clear
6:53 PM 75.9 °F 28.9 °F 18% 29.85 in 10.0 mi West 8.1 mph - N/A   Clear
7:53 PM 70.0 °F 27.0 °F 20% 29.87 in 10.0 mi WNW 4.6 mph - N/A   Clear
8:53 PM 68.0 °F 26.1 °F 21% 29.88 in 10.0 mi WNW 8.1 mph - N/A   Clear
9:53 PM 64.0 °F 26.1 °F 24% 29.89 in 10.0 mi NW 6.9 mph - N/A   Clear
10:53 PM 61.0 °F 26.1 °F 26% 29.90 in 10.0 mi West 6.9 mph - N/A   Clear
11:53 PM 55.0 °F 25.0 °F 31% 29.92 in 10.0 mi South 5.8 mph - N/A   Clear